Regional Weather Roundup
Issued by NWS

Home | Current Version | Previous Version | Graphics & Text | Print | Product List | Glossary On
Versions: 1 2 3 4 5 6 7 8 9 10 11 12 13 14 15 16 17 18 19 20 21 22 23 24 25 26 27 28 29 30 31 32 33 34 35 36 37 38 39 40 41 42 43 44 45 46 47 48 49 50
000
ASUS43 KTOP 080959
RWRKS

WEATHER ROUNDUP FOR KANSAS
NATIONAL WEATHER SERVICE GOODLAND KS
400 AM CST THU DEC 08 2016

NOTE:  "FAIR" INDICATES FEW OR NO CLOUDS BELOW 12,000 FEET WITH NO
SIGNIFICANT WEATHER AND/OR OBSTRUCTIONS TO VISIBILITY.

KSZ001>006-013>018-027>032-041>047-081100-
NORTHWEST KANSAS

CITY           SKY/WX    TMP DP  RH WIND       PRES   REMARKS
GOODLAND       CLOUDY    -3 -10  72 SW13      30.52S WCI -22
HILL CITY      CLEAR      5  -2  72 NW9       30.61S
RUSSELL        CLEAR     10   4  76 NW12      30.60S WCI  -5
$$

KSZ061>065-074>080-084>089-081100-
SOUTHWEST KANSAS

CITY           SKY/WX    TMP DP  RH WIND       PRES   REMARKS
DODGE CITY     CLEAR      6   2  83 N9        30.58S
ELKHART          N/A     12   0  59 N5          N/A
GARDEN CITY    CLEAR      4  -1  80 NW5       30.56R
GREAT BEND     CLEAR     12   6  77 NW13      30.60S WCI  -3
LIBERAL        CLOUDY    14   3  62 NW12      30.56F WCI   0
$$

KSZ066>073-081>083-090>101-081100-
SOUTHEAST KANSAS

CITY           SKY/WX    TMP DP  RH WIND       PRES   REMARKS
CHANUTE        CLEAR     18  10  71 NW8       30.56S
COFFEYVILLE    CLOUDY    19  13  77 NW5       30.60R
HUTCHINSON     CLEAR     16   7  67 NW10      30.60R WCI   4
MEDICINE LODGE   N/A     16  10  77 N8        30.61R
NEWTON         CLEAR     15   6  67 NW13      30.58R WCI   1
PARSONS        CLEAR     16  10  77 NW5       30.58S
WICHITA INTL   CLEAR     19   9  65 NW14      30.60R WCI   6
WICHITA JABRA  CLEAR     16  10  77 NW12      30.59S WCI   3
WINFIELD       CLEAR     18  13  80 NW9       30.60S
$$

KSZ007>012-019>026-033>040-048>060-102>105-081100-
NORTHEAST KANSAS

CITY           SKY/WX    TMP DP  RH WIND       PRES   REMARKS
CONCORDIA      CLEAR     13   4  67 NW15      30.58R WCI  -3
EMPORIA        CLEAR     15   8  73 NW12      30.56R WCI   2
LAWRENCE       CLEAR     16   8  71 W10       30.56R WCI   4
MANHATTAN      CLEAR     15   6  67 W5        30.60R
OLATHE IND     CLEAR     17   9  70 NW15      30.52S WCI   2
OLATHE EXE     CLEAR     16   6  65 NW12      30.51S WCI   3
SALINA         CLEAR     15   7  70 NW14      30.62S WCI   0
TOPEKA BILLARD CLEAR     17   7  64 W9        30.57R
TOPEKA FORBES  CLEAR     18   7  62 NW18      30.55R WCI   2
$$




USA.gov is the U.S. government's official web portal to all federal, state and local government web resources and services.